Weather History for Santa Ana, CA

Change the Weather History Date:

Monday, March 10, 2014

  Actual Average Record
Temperature  
Mean Temperature 65 °F 59 °F  
Max Temperature 74 °F 67 °F 79 °F (2008)
Min Temperature 56 °F 51 °F 43 °F (1999)
Degree Days  
Heating Degree Days 0 6  
Month to date heating degree days 23 65  
Since 1 July heating degree days 513 971  
Cooling Degree Days 0 0  
Month to date cooling degree days 11 0  
Year to date cooling degree days 38 8  
Growing Degree Days 15 (Base 50)    
Moisture  
Dew Point 45 °F    
Average Humidity 58    
Maximum Humidity 78    
Minimum Humidity 38    
Precipitation  
Precipitation 0.00 in 0.08 in 0.27 in (2006)
Month to date precipitation 0.70 1.16  
Year to date precipitation 2.27 7.02  
Since 1 July precipitation 3.32 11.39  
Snow  
Snow 0.00 in - - ()
Month to date snowfall 0.0  
Year to date snowfall 0.0  
Since 1 July snowfall 0.0  
Snow Depth 0.00 in    
Sea Level Pressure  
Sea Level Pressure 30.04 in    
Wind  
Wind Speed 4 mph (SSW)    
Max Wind Speed 15 mph    
Max Gust Speed 17 mph    
Visibility 9 miles    
Events      
T = Trace of Precipitation, MM = Missing Value Source: NWS Daily Summary

Daily Weather History Graph

Daily Weather History Graph

Search for Another Location

Airport:

Trip Planner

Search our weather history database for the weather conditions in past years. The results will help you decide how hot, cold, wet, or windy it might be!

Date:

Astronomy

Mar. 10, 2014 Rise Set
Actual Time 7:08 AM PDT 6:55 PM PDT
Civil Twilight 6:43 AM PDT 7:20 PM PDT
Nautical Twilight 6:14 AM PDT 7:49 PM PDT
Astronomical Twilight 5:45 AM PDT 8:18 PM PDT
Moon 1:54 PM PDT (3/10) 3:12 AM PDT (3/10)
Length of Visible Light 12h 36m
Length of Day
11h 47m
Waxing Gibbous, 71% of the Moon is Illuminated
Mar 10
Waxing Gibbous
Mar 16
Full
Mar 23
Last Quarter
Mar 30
New
Apr 7
First Quarter

Hourly Weather History & Observations

Time (PDT) Temp. Dew Point Humidity Pressure Visibility Wind Dir Wind Speed Gust Speed Precip Events Conditions
12:10 AM 62.6 °F 44.6 °F 52% 30.07 in 1.0 mi SSW 3.5 mph - N/A   Haze
12:20 AM 62.6 °F 42.8 °F 48% 30.07 in 2.5 mi Calm Calm - N/A   Haze
12:34 AM 64.4 °F 44.6 °F 49% 30.07 in 10.0 mi Calm Calm - N/A   Clear
12:53 AM 63.0 °F 43.0 °F 48% 30.06 in 10.0 mi Calm Calm - N/A   Clear
1:53 AM 63.0 °F 39.9 °F 43% 30.06 in 2.5 mi Calm Calm - N/A   Haze
2:06 AM 62.6 °F 39.2 °F 42% 30.06 in 10.0 mi Calm Calm - N/A   Clear
2:20 AM 62.6 °F 37.4 °F 39% 30.06 in 2.5 mi Calm Calm - N/A   Haze
2:29 AM 62.6 °F 39.2 °F 42% 30.05 in 10.0 mi Calm Calm - N/A   Clear
2:53 AM 63.0 °F 39.0 °F 41% 30.04 in 10.0 mi Calm Calm - N/A   Clear
3:53 AM 57.9 °F 41.0 °F 53% 30.03 in 10.0 mi Calm Calm - N/A   Clear
4:53 AM 57.9 °F 41.0 °F 53% 30.02 in 7.0 mi Calm Calm - N/A   Clear
5:53 AM 57.0 °F 37.9 °F 49% 30.03 in 10.0 mi Calm Calm - N/A   Clear
6:53 AM 57.0 °F 37.0 °F 47% 30.04 in 10.0 mi Calm Calm - N/A   Partly Cloudy
7:53 AM 57.9 °F 39.0 °F 49% 30.06 in 10.0 mi Calm Calm - N/A   Partly Cloudy
8:53 AM 64.0 °F 48.0 °F 56% 30.07 in 10.0 mi Calm Calm - N/A   Partly Cloudy
9:53 AM 68.0 °F 45.0 °F 43% 30.08 in 10.0 mi Calm Calm - N/A   Partly Cloudy
10:53 AM 72.0 °F 45.0 °F 38% 30.08 in 10.0 mi SSW 3.5 mph - N/A   Partly Cloudy
11:53 AM 72.0 °F 46.0 °F 40% 30.07 in 10.0 mi SW 13.8 mph - N/A   Partly Cloudy
12:53 PM 72.0 °F 51.1 °F 48% 30.06 in 10.0 mi SSW 12.7 mph - N/A   Scattered Clouds
1:53 PM 73.0 °F 51.1 °F 46% 30.03 in 10.0 mi SSW 11.5 mph - N/A   Scattered Clouds
2:53 PM 73.0 °F 46.0 °F 38% 30.01 in 10.0 mi SW 10.4 mph - N/A   Scattered Clouds
3:53 PM 71.1 °F 51.1 °F 49% 29.99 in 10.0 mi South 9.2 mph - N/A   Scattered Clouds
4:53 PM 70.0 °F 52.0 °F 53% 29.99 in 10.0 mi SSW 10.4 mph - N/A   Scattered Clouds
5:53 PM 68.0 °F 50.0 °F 52% 29.99 in 10.0 mi SW 10.4 mph - N/A   Scattered Clouds
6:53 PM 64.0 °F 52.0 °F 65% 30.01 in 10.0 mi SW 6.9 mph - N/A   Scattered Clouds
7:53 PM 64.0 °F 50.0 °F 60% 30.01 in 10.0 mi Calm Calm - N/A   Partly Cloudy
8:53 PM 64.0 °F 48.9 °F 58% 30.00 in 10.0 mi SSE 4.6 mph - N/A   Clear
9:53 PM 63.0 °F 50.0 °F 63% 30.00 in 10.0 mi SW 3.5 mph - N/A   Clear
10:53 PM 62.1 °F 52.0 °F 70% 30.00 in 10.0 mi SSW 3.5 mph - N/A   Clear
11:53 PM 61.0 °F 53.1 °F 75% 30.00 in 10.0 mi Calm Calm - N/A   Clear